Location: Roland
(31.1349°N, 85.4372°W)
Time: 17:52:07
(UTC+00:00)

SR - Pass Details

Date: 22 April 2021
Orbit: 573 x 882 km, 66.7° (Epoch: 12 May)

Event Time Altitude Azimuth Distance (km) Brightness Sun altitude
Rises 11:27:27 0° 188° (S) 3,201 ? 3.7°
Reaches altitude 10° 11:29:50 10° 183° (S) 2,326 ? 4.2°
Maximum altitude 11:34:59 48° 110° (ESE) 1,068 ? 5.3°
Drops below altitude 10° 11:40:31 10° 37° (NE) 2,496 ? 6.4°
Sets 11:43:08 0° 32° (NNE) 3,459 ? 7.0°
